Location: Saluda
(35.2377°N, 82.3468°W)
Time: 04:27:17
(UTC+00:00)

Vanguard 2 - Pass Details

Date: 04 October 2022
Orbit: 553 x 2933 km, 32.9° (Epoch: 04 December)

Event Time Altitude Azimuth Distance (km) Brightness Sun altitude
Rises 21:22:39 0° 276° (W) 5,516 13.0 20.3°
Reaches altitude 10° 21:25:50 10° 275° (W) 4,773 12.9 19.7°
Maximum altitude 21:40:35 76° 193° (SSW) 2,872 10.8 16.8°
Drops below altitude 10° 21:58:33 10° 112° (ESE) 5,658 11.5 13.3°
Sets 22:02:42 0° 111° (ESE) 6,541 11.8 12.5°
